    Observer details:
    073 Bucharest.  Observers A. Sonka, A. Nedelcu.  Measurer A. Sonka.  0.50-m
        f/7 500mm Reflector + CCD.
    595 Farra d'Isonzo.  Observer E. Pettarin.  0.61-m f/4.5 reflector + CCD.
    900 Moriyama.  Observer Y. Ikari.  0.26-m f/7.0 reflector + CCD.
    958 Observatoire de Dax.  Observers P. Dupouy, J. Laborde.  Measurer P.
        Dupouy.  0.30-m f/5 Schmidt-Cassegrain + CMO.
    B72 Soerth.  Observer B. Koch.  0.36-m f/7.6 reflector + CMO.
    C40 Kuban State University Astrophysical Observatory.  Observers A. Ivanov, A.
        Barcov, V. Ivanov, V. Lysenko, N. Yakovenko, N. Ivanova, N. Gorbunov, G.
        Kurbatov, P. Shchukin, V. Roshchupko.  Measurer A. Ivanov.  0.51-m f/8
        reflector + CCD.
    G02 KYSUCE Observatory, Kysucke Nove Mesto.  Observer M. Urbanik.  0.40-m
        f/6.8 Corrected Dall-Kirkham + CCD.
    G33 Wickede.  Observer G. Neue.  0.27-m Schmidt-Cassegrain + CCD.
    H21 Astronomical Research Observatory, Westfield.  Observer R. Holmes.
        Measurers T. Linder, R. Holmes, L. Horn.  0.76-m f/3.0 astrograph + CCD.
    K35 Huenfelden.  Observer P. Remmel.  0.36-m f/1.9 reflector + CMO.
    L18 QOS Observatory, Zalistsi.  Observers B. O. Basiev, O. V. Kravchenko.
        Measurer A. M. Kozhukhov.  0.50-m f/3.8 reflector + CCD.
    L65 Bredenkamp Observatory, Bremen.  Observer H. Duin.  0.23-m f/6.3 reflector
        + CMO.
    L76 Nomad Observatory, Kochevanchik.  Observer E. Romas.  0.25-m f/4 newtonian
        + CMO.
    M28 Lesedi Telescope-SAAO Observatory, Sutherland.  Observers N. Erasmus, S.
        Potter, C. van Gend, S. Chandra.  Measurers N. Erasmus, T. Ngwane.  1.0-m
        f/8 Reflector + CCD.
    M32 Sunny Transcarpathian, Mukachevo.  Observer O. Briukhovetskyi.  0.35-m
        f/2.0 astrograf + CCD.
    M45 Starhopper Observatory, Sfantu Gheorghe.  Observer F. Ursache.  0.41-m
        f/7.5 reflector + CMO.
    M49 IAS Remote Observatory, Hakos.  Observers D. Husar, M. Junius.  Measurer
        D. Husar.  0.25-m f/4.6 reflector + CMO.
    W68 ATLAS Chile, Rio Hurtado.  Observers L. Denneau, R. Siverd, J. Tonry, H.
        Weiland.  Measurers L. Denneau, N. Erasmus, A. Fitzsimmons, A. Lawrence,
        J. Robinson, R. Siverd, J. Tonry, H. Weiland.  0.5-m Reflector + CCD.
    X09 Deep Random Survey, Rio Hurtado.  Observers A. Schnabel, D. Ruhela.
        Measurer S. Deen.  0.43-m reflector + CMOS.
    Z80 Northolt Branch Observatory.  Observer G. Wells.  Measurers G. Wells, J.
        Leuty, D. Bamberger.  0.25-m f/8.0 Ritchey-Chretien + CCD.
    
    Orbital elements:
    2023 QC7                                                 Earth MOID = 0.0094 AU
    Epoch 2023 Sept. 13.0 TT = JDT 2460200.5                Veres                   
    M  55.20609              (2000.0)            P               Q                  
    n   0.82744527     Peri.  311.10619     +0.18863410     +0.97583431             
    a   1.1236814      Node   329.23835     -0.82396060     +0.09616003             
    e   0.1253406      Incl.   12.45310     -0.53432772     +0.19621581             
    P   1.19           H   23.21          G   0.15           U   8                  
    Residuals in seconds of arc
    230827 W68  0.0   0.1-    230827 M32  0.1+  0.2-    230827 L65  0.1+  0.4-
    230827 W68  0.1+  0.3+    230827 M45  0.2+  0.3+    230827 C40  0.1-  0.0
    230827 W68  0.1+  0.4-    230827 L18  0.9+  0.1+    230827 L65  0.9-  0.3-
    230827 W68  0.4-  0.2+    230827 M32  0.3-  1.0-    230827 C40  0.2+  0.1+
    230827 X09  0.6-  0.1+    230827 L18  0.2+  0.6+    230827 L65  0.2-  0.9-
    230827 X09  0.4+  0.7-    230827 073  0.7+  1.7+    230827 C40  0.5+  0.1+
    230827 900  0.0   0.5-    230827 L18  0.5+  0.5+    230827 K35  0.6+  0.1+
    230827 900  0.0   0.3-    230827 M32  0.2-  1.7-    230827 K35  0.0   0.2-
    230827 900  0.2+  0.4-    230827 M32  0.5-  2.3-    230827 K35  0.2-  0.5-
    230827 M28  0.5-  2.9+    230827 L76  0.6+  0.1-    230827 K35  0.1+  0.0
    230827 M28  0.7-  1.4+    230827 073  2.5+  1.0+    230827 K35  0.6+  0.4+
    230827 M28  1.6-  1.1-    230827 G02  0.4+  0.3-    230827 K35  0.1-  0.6-
    230827 M45  0.4-  0.4+    230827 L76  0.5-  0.5+    230827 Z80  0.4-  0.8+
    230827 M45  0.1-  0.5-    230827 B72  0.1+  0.3-    230827 G33  0.2+  0.0
    230827 M45  0.2+  0.0     230827 B72  0.6+  0.2-    230827 G33  0.0   0.3-
    230827 M49  0.1+  0.2-    230827 B72  0.3+  0.1-    230827 958  0.1-  0.5-
    230827 595  0.1-  0.2-    230827 G02  0.9+  1.0+    230827 Z80  0.5+  0.0
    230827 M49  0.0   0.2-    230827 L76  0.5+  0.0     230827 958  0.6+  0.9+
    230827 M49  0.1-  0.3-    230827 G02  0.5+  0.1+    230827 958  0.7+  0.8+
    230827 595  0.0   0.2-    230827 C40  0.2-  0.0     230827 G33  0.1-  0.7+
    230827 595  0.0   0.4-    230827 L76  0.2+  0.1-    230827 G33  0.4-  0.4-
    230827 073  1.8+  3.6+    230827 C40  0.1+  0.0     230827 958  0.1+  0.2-
    230827 073  0.2+  1.2+    230827 C40  0.2+  0.1-    230827 958  0.6-  0.7-
    230827 073  0.3+  3.6+    230827 G33  0.2+  0.1+    230828 H21  0.1-  0.4+
    230827 073  1.8+  2.7+    230827 G33  0.4+  0.1-    230828 H21  0.2-  0.3+
    230827 M45  0.5-  0.0     230827 G33  0.0   0.2-    230828 H21  0.1+  0.0
    230827 073  0.2-  0.2-    230827 G33  0.2-  0.5+    230828 H21  0.1+  0.0
    230827 M32  0.1+  0.8+    230827 G33  0.3+  0.1+
    230827 M45  0.3+  0.5+    230827 G33  0.1-  0.2-
    
    Ephemeris:
    2023 QC7                 a,e,i = 1.12, 0.13, 12                  q = 0.9828
    Date    TT    R. A. (2000) Decl.     Delta      r    Elong.  Phase     V
    2023 07 29    09 26 06.2 -53 51 21   0.1086  0.9905    73.8   100.2    22.0
    ...
    2023 08 13    11 08 55.4 -62 48 46   0.04920 1.0061    80.2    97.1    20.2
    ...
    2023 08 21    16 13 46.5 -51 11 39   0.02402 1.0171   102.0    76.7    17.8
    ...
    2023 08 27    18 41 20.5 +00 40 42   0.02763 1.0264   124.4    54.3    17.5
    2023 08 28    18 53 01.3 +06 36 15   0.03045 1.0280   124.9    53.7    17.7
    2023 08 29    19 02 53.6 +11 27 16   0.03361 1.0297   124.9    53.6    17.9
    ...
    2023 09 04    19 40 11.5 +27 08 38   0.05609 1.0400   122.6    54.8    19.0
    ...
    2023 09 12    20 05 31.1 +34 13 36   0.08923 1.0546   120.4    55.5    20.1
    ...
    2023 09 27    20 35 38.5 +37 36 44   0.1531  1.0841   118.6    54.3    21.3
    
    M. P. C. Staff               (C) Copyright 2023 MPC           M.P.E.C. 2023-Q152
    


    Read MPEC 2023-Q151 Read MPEC 2023-Q153


    MPEC number:

    Enter an MPEC number in one of the following forms:

    • 1997-B01 (the full form)
    • J97B01 (the packed version of the full form)
    • B01 (the abbreviated form)